Temperature
20 19 19 18 18 17 17 17 17 17 17 17 17 17 17 17 17 17 17 17 17 16 16 16 16 16 16 15 15 15 15 15 15 15 15 15 15 15 15 15 15 15 15
20 19 18 18 18 17 17 17 17 17 17 17 17 17 17 17 17 17 17 17 17 16 16 16 16 16 16 16 16 15 15 15 15 15 15 15 15 15 15 15 15 15 15
19 18 18 18 17 17 17 17 17 17 17 17 17 17 17 17 17 17 17 17 17 16 16 16 16 16 16 16 16 15 15 15 15 15 15 15 15 15 15 15 15 15 15
19 18 17 17 17 17 17 17 17 17 17 17 17 17 17 17 17 17 17 17 16 16 16 16 16 16 16 16 16 16 15 15 15 15 15 15 15 15 15 15 15 15 15
18 18 17 17 17 17 16 16 16 16 16 16 16 16 16 16 16 17 16 16 16 16 16 16 16 16 16 16 16 16 16 15 15 15 15 15 15 15 15 15 15 14 14
18 17 17 17 17 17 16 16 16 16 16 16 16 16 16 16 16 16 16 16 16 16 16 16 16 16 16 16 16 16 15 15 15 15 15 15 15 15 15 15 14 14 14
17 17 17 16 16 16 16 16 16 16 16 16 16 16 16 16 16 16 16 16 16 16 16 16 16 16 16 16 16 16 15 15 15 15 15 15 15 15 15 14 14 14 14
16 16 16 16 16 16 16 16 16 16 16 16 16 16 16 16 16 16 16 16 16 16 16 16 16 16 16 16 16 16 15 15 15 15 15 15 15 15 14 14 14 14 14
16 15 16 16 16 16 16 16 16 16 16 16 16 16 16 16 16 16 16 16 16 16 16 16 16 16 16 16 16 15 15 15 15 15 15 15 15 14 14 14 14 14 14
15 15 15 15 15 15 15 15 16 16 16 16 16 16 15 15 15 16 16 16 16 16 16 16 16 16 16 16 15 15 15 15 15 15 15 15 14 14 14 14 14 14 14
15 15 15 15 15 15 15 15 15 15 15 15 15 15 15 15 15 15 15 15 16 16 16 16 16 16 16 16 15 15 15 15 15 15 15 14 14 14 14 14 14 14 14
14 14 14 15 15 15 15 15 15 15 15 15 15 15 15 15 15 15 15 15 15 15 15 16 16 16 16 16 15 15 15 15 15 15 14 14 14 14 14 14 14 14 13
14 14 14 14 14 14 15 15 15 15 15 15 15 15 15 15 15 15 15 15 15 15 15 15 15 15 15 15 15 15 15 15 15 15 14 14 14 14 14 14 14 13 13
13 14 14 14 14 14 14 14 15 14 14 15 15 15 15 15 15 15 15 15 15 15 15 15 15 15 15 15 15 15 15 15 14 14 14 14 14 14 14 14 14 14 13
13 13 13 14 14 14 14 14 14 14 14 14 14 14 15 15 15 15 15 15 15 15 15 15 15 15 15 15 15 15 15 14 14 14 14 14 14 14 14 13 13 13 13
12 13 13 13 14 14 14 14 14 14 14 14 14 14 14 15 15 15 15 15 15 15 15 15 15 15 15 15 15 15 15 14 14 14 14 14 14 14 14 13 13 13 13
12 12 13 13 13 13 13 14 14 14 14 14 14 14 14 14 14 15 15 15 15 15 15 15 15 15 15 15 15 15 15 14 14 14 14 14 14 13 13 13 13 13 13
11 12 12 12 13 13 13 13 13 13 14 14 14 14 14 14 14 14 14 14 15 15 15 15 15 15 15 15 15 15 14 14 14 14 14 14 14 13 13 13 13 13 13
11 11 12 12 12 12 13 13 13 13 13 13 14 14 14 14 14 14 14 14 14 14 14 15 15 15 15 15 15 14 14 14 14 14 14 14 13 13 13 13 13 13 13
10 11 11 12 12 12 12 12 12 13 13 13 13 13 14 14 14 14 13 13 14 14 14 14 14 14 14 14 14 14 14 14 14 14 14 14 13 13 13 13 13 13 13
10 10 11 11 11 12 12 12 12 12 13 13 13 13 13 13 13 13 13 13 13 14 14 14 14 14 14 14 13 13 13 13 14 14 14 14 14 13 13 13 13 13 13
10 10 10 11 11 11 12 12 12 12 13 13 13 13 13 13 13 13 13 13 13 13 13 14 14 14 14 13 13 13 13 13 14 14 14 14 14 13 13 13 13 13 12
9 10 10 10 11 11 11 11 12 12 12 12 12 13 13 13 13 13 13 13 13 13 13 14 14 14 14 13 13 13 13 13 13 13 14 14 13 13 13 13 13 12 12
9 9 10 10 10 11 11 11 11 11 11 12 12 13 13 13 13 12 12 13 13 13 13 13 13 13 13 13 13 13 13 13 13 13 13 13 13 13 13 13 13 12 12
9 9 9 10 10 10 10 11 11 11 11 12 12 12 12 12 12 12 12 12 12 12 12 13 13 13 13 13 13 13 12 13 13 13 13 13 13 13 13 13 12 12 12
8 8 9 9 9 10 10 10 10 11 11 11 11 11 12 12 12 12 12 12 12 12 12 12 12 13 13 13 13 13 13 13 13 13 13 13 13 13 12 12 12 12 12
Wind_Speed
4 9 20 21 21 20 20 19 19 19 20 21 21 22 22 21 21 20 19 19 18 18 19 19 20 20 19 19 18 18 18 17 18 18 17 17 17 16 16 16 15 15 16
5 12 19 21 21 20 20 19 19 19 19 20 20 21 21 20 20 20 19 19 18 19 19 20 20 20 19 19 18 18 17 17 17 17 16 16 16 15 15 15 14 14 15
6 12 17 20 20 20 20 19 19 19 19 20 20 20 20 20 20 20 19 19 18 19 19 19 19 19 19 18 18 17 17 16 16 16 14 13 14 14 14 14 14 15 15
6 11 15 19 20 20 20 20 19 19 19 19 20 20 20 20 20 20 19 19 19 19 19 19 19 19 18 18 17 16 16 15 15 14 12 11 12 13 13 13 14 14 14
4 8 13 19 20 20 20 20 20 20 19 19 19 19 20 20 20 19 19 19 19 19 20 20 19 18 18 16 16 15 14 14 14 13 12 11 11 13 13 13 13 13 13
3 5 10 18 19 20 20 20 21 20 20 20 19 19 20 20 20 19 19 19 19 20 20 19 19 18 16 15 15 14 14 14 13 12 10 10 10 12 13 12 12 12 12
1 2 6 15 18 19 19 20 20 21 20 20 20 20 20 20 20 19 19 19 20 20 20 19 18 17 15 14 14 14 14 14 13 10 8 8 9 11 11 11 11 11 11
1 0 3 11 16 18 18 19 19 20 20 20 20 20 20 20 20 19 19 20 20 20 19 19 18 16 15 14 14 14 14 13 11 9 7 7 8 9 9 9 9 9 9
1 0 1 5 10 15 18 19 19 19 19 19 20 20 20 20 20 20 20 20 20 19 19 18 17 16 14 14 14 14 13 12 11 9 7 6 7 8 8 8 8 8 8
2 1 3 3 6 8 12 17 19 20 19 19 19 19 19 20 20 21 21 20 20 19 18 18 17 15 14 13 13 13 12 11 10 8 6 6 7 7 7 7 6 6 6
5 4 3 3 4 6 9 13 16 18 18 18 18 19 18 16 17 19 19 20 20 19 18 17 16 15 13 12 13 13 12 10 8 7 6 6 6 6 6 6 5 5 4
6 6 4 4 4 5 8 9 10 13 14 14 14 16 15 15 15 17 19 20 20 19 18 16 15 14 12 10 10 11 9 9 8 7 7 6 6 6 6 5 4 3 3
6 6 5 4 5 5 5 5 6 8 10 12 13 15 14 14 13 14 14 15 16 16 14 14 12 11 10 9 8 8 8 8 7 7 7 7 7 7 6 5 4 3 2
7 8 7 5 5 6 6 5 5 6 6 7 12 15 13 8 8 10 10 12 12 12 10 10 9 9 8 8 8 7 7 6 7 7 7 8 8 7 6 5 4 3 2
9 9 8 7 6 6 6 6 6 6 7 9 11 14 15 9 9 9 9 11 12 12 10 8 8 7 6 6 6 6 5 6 7 7 7 8 8 7 6 5 5 4 3
10 9 8 7 8 7 7 7 7 6 7 9 10 14 16 12 9 9 9 9 10 12 12 10 8 6 4 4 4 5 5 6 7 8 8 8 9 8 7 6 5 4 3
11 10 9 8 8 8 8 8 7 6 7 7 9 14 16 14 12 10 10 10 10 13 12 9 7 5 4 3 4 4 4 6 6 7 8 8 8 9 8 7 6 5 4
10 10 10 9 8 9 9 8 6 6 7 7 9 12 15 16 15 10 10 10 11 12 9 7 6 5 5 4 3 3 3 4 5 7 7 8 8 8 8 8 7 6 5
10 10 10 9 9 10 10 8 7 7 7 6 8 9 13 16 16 11 9 9 12 10 8 8 6 5 5 5 4 3 3 3 3 5 5 7 8 9 8 8 8 7 6
10 10 10 9 10 9 8 6 6 6 7 7 7 9 12 14 16 13 9 10 11 10 9 8 7 5 4 5 3 2 2 3 3 4 4 6 7 9 9 8 8 7 6
8 9 9 10 10 8 6 7 7 7 7 7 8 10 12 13 15 13 11 11 11 11 11 11 7 7 4 4 3 1 1 2 3 3 3 3 5 7 9 9 9 8 6
7 8 8 9 9 10 8 7 5 5 5 7 7 9 11 13 14 13 13 12 13 11 12 12 8 6 4 6 4 3 1 2 3 3 3 4 4 5 6 8 9 8 8
7 7 8 8 8 9 9 6 4 4 3 5 7 8 10 12 13 13 14 13 13 12 12 13 12 11 7 6 4 4 4 5 2 2 3 3 4 4 4 6 8 9 9
6 5 6 6 7 7 8 8 9 8 8 7 7 8 9 11 12 13 13 13 13 12 11 12 12 9 9 8 5 4 3 4 3 2 2 2 4 5 5 5 7 9 10
4 3 4 5 5 6 7 8 10 9 8 6 6 8 9 10 11 12 12 12 13 12 12 11 11 10 8 8 7 4 3 2 2 3 3 3 3 4 5 5 5 7 10
4 2 2 2 3 4 6 7 9 10 9 8 8 8 8 7 9 12 12 12 12 11 11 11 11 12 11 9 7 6 5 4 5 4 4 4 4 3 3 4 5 6 9
Wind_Direction
195 177 170 163 162 160 157 154 148 144 142 142 142 142 142 143 142 141 139 136 134 131 128 126 123 121 117 112 107 103 99 95 92 89 88 88 88 87 85 80 77 76 79
179 175 172 165 164 163 160 157 152 148 146 145 145 145 145 145 144 143 142 140 137 133 131 128 125 122 118 113 109 105 101 98 94 92 89 88 89 89 87 84 82 81 80
164 172 171 167 166 165 163 160 156 153 151 149 149 149 148 147 147 146 144 143 139 136 133 130 127 123 119 116 112 110 106 103 99 95 92 91 93 92 91 87 84 83 82
165 169 171 169 169 168 166 163 161 159 156 154 153 153 152 151 150 149 148 145 142 139 135 131 127 124 122 120 118 115 112 109 105 99 91 89 94 95 94 91 87 85 84
159 168 173 172 172 172 170 167 167 165 163 160 159 159 157 156 154 153 151 148 144 140 137 133 130 128 125 123 123 121 118 115 110 103 96 92 94 97 95 91 88 86 84
144 160 176 177 177 176 175 173 172 171 169 167 166 165 163 161 159 157 154 149 145 141 140 138 135 132 128 126 128 129 125 120 114 107 102 100 100 101 98 95 92 88 84
126 145 184 184 183 182 180 179 179 177 175 173 173 171 169 166 163 159 156 150 147 144 144 143 141 137 133 131 131 132 131 127 121 115 110 108 110 107 103 99 94 91 87
11 244 199 195 190 188 186 184 183 181 181 180 179 177 174 171 167 161 158 154 152 150 150 149 146 142 138 136 135 136 137 134 128 121 120 118 118 112 109 105 100 95 91
17 269 229 210 198 193 192 190 188 185 184 184 183 182 179 175 170 163 161 159 157 156 155 154 151 146 142 139 140 142 143 141 136 133 132 134 130 123 117 112 106 100 95
350 280 242 219 210 203 201 199 194 190 189 188 187 183 180 177 172 166 164 164 162 161 160 159 156 151 145 142 144 147 148 146 144 146 148 154 148 138 130 122 115 107 101
333 318 278 235 220 210 206 206 200 196 194 192 188 183 177 176 171 167 166 167 165 164 163 162 160 154 146 143 147 151 151 155 158 163 171 173 163 153 143 135 127 118 107
308 303 286 257 230 220 215 204 201 199 195 192 186 180 175 170 168 167 169 168 167 166 165 165 162 154 145 140 144 151 156 164 172 182 192 190 179 169 160 155 147 136 124
275 280 280 258 236 220 213 202 196 195 191 188 182 178 171 165 164 163 166 169 168 165 163 164 159 154 150 148 148 156 165 173 184 193 204 206 198 188 181 179 176 173 175
270 268 267 258 236 222 215 207 197 192 189 188 186 178 171 167 165 167 169 169 167 167 163 161 159 160 160 161 161 164 174 184 192 202 214 217 212 205 199 195 195 203 214
259 261 259 247 232 222 214 209 198 195 193 189 186 184 179 174 174 172 173 172 171 170 169 166 165 166 167 167 170 173 183 195 203 210 221 222 218 212 210 209 208 210 216
253 253 254 247 232 217 214 211 204 196 191 187 187 189 185 181 176 177 176 177 177 177 177 175 173 170 172 172 179 185 192 200 210 214 221 224 220 218 217 217 216 213 206
251 249 245 244 231 218 214 211 204 198 189 191 192 190 189 185 181 180 181 183 182 180 176 171 168 165 169 179 192 194 196 205 210 216 220 221 220 221 219 217 217 215 215
248 248 244 240 225 217 214 211 203 199 194 195 192 191 190 188 184 182 185 187 181 178 176 174 173 173 184 186 194 203 200 205 213 216 215 215 214 215 217 216 214 213 215
243 242 241 233 224 216 212 209 202 198 197 194 190 191 193 191 186 186 190 187 180 180 181 183 180 176 184 189 196 205 209 211 209 208 208 210 209 208 208 210 209 208 210
242 238 236 232 225 215 209 201 198 201 201 194 195 194 194 193 189 187 191 187 183 185 186 185 178 177 179 176 176 189 218 224 213 209 207 206 204 204 202 198 196 200 206
244 239 233 230 223 206 198 196 196 204 203 199 201 199 196 196 194 191 193 188 189 193 191 185 176 176 177 152 132 144 307 248 226 223 205 197 197 198 193 193 193 193 198
244 242 234 230 220 207 202 197 188 185 196 200 202 201 200 198 197 197 194 193 193 194 191 186 175 172 176 169 153 144 222 287 257 226 207 206 204 189 191 194 191 191 192
251 243 239 231 219 207 201 195 183 175 176 190 197 203 204 200 200 199 199 194 194 195 196 192 186 182 182 187 180 166 174 215 233 246 219 211 200 197 199 190 192 193 193
258 243 235 227 216 203 195 195 193 195 202 205 202 202 199 199 201 200 200 198 196 197 198 197 193 189 180 187 198 208 190 163 171 217 254 223 207 208 207 199 192 193 192
290 258 238 225 214 200 196 201 205 208 208 203 194 196 200 201 202 199 198 199 198 198 199 197 193 192 191 191 188 181 183 183 178 185 221 224 221 220 211 203 195 194 194
331 298 272 234 226 207 200 202 207 207 204 199 198 200 203 203 203 200 199 200 200 199 199 199 198 198 200 199 196 189 182 184 195 193 212 219 222 219 210 204 203 198 199
Height
1490 1491 1492 1495 1498 1501 1504 1506 1509 1512 1514 1516 1518 1519 1521 1523 1525 1526 1527 1529 1530 1532 1533 1534 1535 1537 1538 1539 1540 1541 1542 1543 1544 1544 1545 1545 1545 1546 1546 1546 1546 1546 1546
1489 1490 1492 1495 1498 1501 1503 1506 1509 1512 1514 1516 1518 1520 1522 1523 1525 1527 1528 1529 1531 1532 1534 1535 1536 1538 1539 1540 1541 1542 1543 1544 1545 1546 1546 1547 1547 1547 1547 1548 1548 1548 1548
1488 1490 1492 1495 1498 1501 1503 1506 1509 1512 1514 1516 1518 1520 1522 1524 1525 1527 1529 1530 1532 1533 1535 1536 1537 1539 1540 1541 1542 1544 1545 1546 1546 1547 1548 1548 1548 1549 1549 1549 1549 1549 1549
1489 1490 1492 1495 1498 1501 1503 1506 1509 1511 1514 1516 1518 1520 1522 1524 1526 1527 1529 1531 1532 1534 1535 1537 1538 1540 1541 1543 1544 1545 1546 1547 1548 1549 1549 1550 1550 1550 1550 1551 1551 1551 1551
1490 1491 1492 1495 1498 1501 1503 1506 1509 1511 1514 1516 1518 1520 1522 1524 1526 1528 1530 1531 1533 1534 1536 1538 1539 1541 1542 1544 1545 1546 1547 1548 1549 1550 1551 1551 1551 1552 1552 1552 1552 1552 1552
1490 1491 1493 1495 1498 1501 1503 1506 1508 1511 1513 1515 1518 1520 1522 1524 1526 1528 1530 1531 1533 1535 1537 1538 1540 1542 1544 1545 1546 1547 1549 1550 1551 1551 1552 1552 1553 1553 1553 1553 1553 1553 1553
1490 1492 1493 1495 1498 1500 1503 1505 1507 1510 1512 1514 1517 1519 1521 1523 1526 1528 1530 1532 1533 1535 1537 1539 1541 1543 1544 1546 1547 1548 1550 1551 1552 1552 1553 1553 1554 1554 1554 1554 1554 1554 1554
1490 1492 1493 1495 1497 1500 1502 1504 1506 1508 1511 1513 1516 1518 1520 1523 1525 1527 1530 1532 1534 1536 1538 1539 1541 1543 1545 1547 1548 1549 1551 1552 1553 1553 1554 1554 1555 1555 1555 1555 1555 1555 1555
1490 1491 1493 1494 1496 1498 1501 1503 1505 1507 1510 1512 1514 1517 1519 1522 1524 1527 1529 1531 1534 1536 1538 1540 1542 1544 1545 1547 1549 1550 1551 1552 1553 1554 1555 1555 1555 1556 1556 1556 1556 1556 1556
1489 1490 1491 1493 1494 1496 1499 1501 1504 1506 1508 1511 1513 1515 1518 1521 1523 1526 1528 1531 1533 1536 1538 1540 1542 1544 1545 1547 1549 1550 1551 1552 1554 1554 1555 1556 1556 1556 1556 1556 1557 1556 1556
1487 1488 1489 1491 1492 1494 1496 1499 1502 1504 1506 1509 1511 1514 1516 1519 1522 1525 1527 1530 1533 1535 1537 1540 1542 1544 1545 1547 1549 1550 1552 1553 1554 1555 1555 1556 1556 1557 1557 1557 1557 1557 1557
1484 1485 1487 1488 1489 1491 1493 1496 1498 1501 1504 1506 1509 1511 1514 1517 1520 1523 1526 1529 1531 1534 1537 1539 1541 1543 1545 1547 1548 1550 1551 1553 1554 1554 1555 1556 1556 1557 1557 1557 1557 1557 1556
1481 1482 1483 1485 1486 1488 1490 1492 1495 1498 1500 1503 1506 1509 1511 1514 1517 1520 1523 1526 1529 1532 1535 1537 1540 1542 1544 1546 1548 1549 1551 1552 1553 1554 1555 1555 1556 1556 1556 1557 1557 1556 1556
1477 1478 1479 1480 1482 1484 1486 1488 1491 1494 1496 1499 1502 1505 1508 1511 1514 1517 1520 1523 1527 1530 1533 1535 1538 1540 1543 1545 1547 1548 1550 1551 1552 1553 1554 1554 1555 1556 1556 1556 1556 1556 1555
1472 1473 1474 1476 1477 1480 1482 1484 1486 1489 1492 1495 1498 1501 1505 1507 1511 1514 1517 1521 1524 1527 1530 1533 1536 1539 1541 1543 1545 1547 1549 1550 1551 1552 1553 1553 1554 1554 1555 1555 1555 1555 1555
1466 1468 1470 1471 1472 1474 1477 1479 1482 1485 1488 1491 1494 1497 1501 1504 1507 1511 1514 1517 1521 1524 1528 1531 1534 1537 1539 1541 1543 1545 1547 1548 1549 1550 1551 1552 1553 1553 1553 1553 1554 1553 1553
1461 1462 1464 1465 1467 1469 1472 1474 1477 1480 1483 1486 1490 1493 1496 1500 1503 1507 1510 1514 1517 1521 1525 1528 1531 1534 1537 1539 1541 1543 1544 1546 1547 1548 1549 1550 1551 1551 1552 1552 1552 1552 1552
1454 1456 1458 1460 1462 1464 1466 1469 1472 1475 1478 1481 1485 1488 1492 1495 1499 1503 1506 1510 1513 1517 1521 1524 1528 1531 1533 1536 1538 1540 1542 1543 1545 1546 1547 1548 1548 1549 1549 1550 1550 1550 1550
1448 1449 1451 1454 1456 1458 1461 1464 1467 1470 1473 1476 1480 1483 1487 1491 1495 1498 1502 1506 1509 1513 1517 1520 1524 1527 1530 1533 1535 1537 1539 1540 1542 1543 1544 1545 1546 1546 1547 1547 1547 1547 1547
1441 1443 1445 1447 1450 1453 1456 1459 1461 1464 1467 1471 1474 1478 1482 1486 1490 1493 1497 1501 1505 1508 1512 1516 1520 1523 1527 1530 1532 1534 1536 1537 1539 1540 1541 1542 1542 1543 1544 1544 1544 1544 1544
1434 1436 1437 1440 1443 1446 1449 1452 1455 1458 1461 1465 1469 1472 1476 1480 1484 1488 1492 1496 1500 1503 1507 1511 1515 1519 1522 1526 1529 1531 1532 1533 1534 1536 1537 1538 1538 1539 1540 1540 1541 1541 1541
1428 1429 1431 1433 1436 1440 1443 1447 1450 1454 1457 1460 1464 1467 1471 1475 1479 1482 1486 1490 1494 1498 1502 1506 1510 1514 1517 1521 1524 1526 1528 1530 1529 1531 1532 1533 1534 1535 1536 1537 1537 1538 1538
1422 1424 1425 1427 1430 1434 1438 1442 1445 1448 1452 1455 1458 1461 1465 1469 1473 1477 1481 1485 1489 1492 1496 1500 1504 1508 1511 1515 1519 1521 1523 1523 1525 1526 1527 1529 1530 1531 1532 1533 1533 1534 1534
1418 1419 1421 1423 1426 1429 1432 1436 1439 1442 1445 1448 1452 1456 1460 1464 1467 1471 1475 1479 1482 1486 1490 1494 1498 1502 1506 1509 1513 1516 1518 1519 1520 1521 1522 1524 1525 1526 1527 1528 1529 1529 1530
1415 1416 1417 1419 1421 1424 1427 1430 1434 1437 1440 1444 1448 1451 1454 1458 1461 1465 1469 1473 1476 1480 1484 1489 1492 1496 1500 1503 1506 1509 1512 1514 1515 1516 1516 1518 1519 1520 1521 1523 1524 1524 1524
1413 1414 1415 1416 1418 1420 1423 1426 1428 1431 1435 1439 1442 1445 1449 1452 1455 1459 1463 1466 1470 1474 1478 1482 1486 1490 1494 1497 1500 1503 1505 1508 1509 1510 1511 1511 1512 1514 1516 1517 1518 1519 1519